| DS18B20 | SHTC3 | ||||||
|---|---|---|---|---|---|---|---|
| ID | Date d/m/Y & Time | data1 สูง | data2 ต่ำ | data3 นอก | temp pcb | hum pcb | Time |
| 1380 | 11/03/2026 05:32:10 | 26.8  | 26.9  | 25.7  | 26.6  | 70.5  | 05:32 |
| 1379 | 11/03/2026 05:27:28 | 26.9  | 26.9  | 25.5  | 26.9  | 70.6  | 05:27 |
| 1378 | 11/03/2026 05:22:47 | 26.9  | 27.0  | 25.7  | 26.9  | 70.5  | 05:22 |
| 1377 | 11/03/2026 05:18:06 | 26.9  | 27.0  | 25.8  | 26.8  | 70.6  | 05:18 |
| 1376 | 11/03/2026 05:13:24 | 26.9  | 27.0  | 25.7  | 26.8  | 70.6  | 05:13 |
| 1375 | 11/03/2026 05:08:43 | 26.9  | 27.1  | 25.5  | 27.0  | 70.6  | 05:08 |
| 1374 | 11/03/2026 05:04:01 | 27.0  | 27.1  | 25.5  | 26.9  | 70.5  | 05:04 |
| 1373 | 11/03/2026 04:59:20 | 27.0  | 27.1  | 25.6  | 27.1  | 70.5  | 04:59 |
| 1372 | 11/03/2026 04:54:39 | 27.0  | 27.1  | 25.7  | 26.9  | 70.5  | 04:54 |
| 1371 | 11/03/2026 04:49:58 | 27.1  | 27.1  | 25.7  | 26.9  | 70.5  | 04:49 |
| 1370 | 11/03/2026 04:45:17 | 27.1  | 27.1  | 26.0  | 26.9  | 70.4  | 04:45 |
| 1369 | 11/03/2026 04:40:36 | 27.1  | 27.1  | 26.0  | 27.2  | 70.5  | 04:40 |
| 1368 | 11/03/2026 04:35:55 | 27.1  | 27.2  | 26.0  | 26.9  | 70.5  | 04:35 |
| 1367 | 11/03/2026 04:31:13 | 27.1  | 27.2  | 26.0  | 27.1  | 70.4  | 04:31 |
| 1366 | 11/03/2026 04:26:31 | 27.1  | 27.2  | 25.9  | 27.0  | 70.4  | 04:26 |
| 1365 | 11/03/2026 04:21:50 | 27.1  | 27.2  | 26.1  | 27.1  | 70.4  | 04:21 |
| 1364 | 11/03/2026 04:17:09 | 27.2  | 27.2  | 26.1  | 27.1  | 70.4  | 04:17 |
| 1363 | 11/03/2026 04:12:29 | 27.2  | 27.3  | 26.0  | 27.2  | 70.3  | 04:12 |
| 1362 | 11/03/2026 04:07:46 | 27.2  | 27.3  | 26.0  | 27.1  | 70.3  | 04:07 |
| 1361 | 11/03/2026 04:03:02 | 27.2  | 27.3  | 26.1  | 27.2  | 70.4  | 04:03 |
| 1360 | 11/03/2026 03:58:21 | 27.3  | 27.4  | 26.2  | 27.1  | 70.3  | 03:58 |
| 1359 | 11/03/2026 03:53:40 | 27.3  | 27.4  | 26.1  | 27.5  | 70.3  | 03:53 |
| 1358 | 11/03/2026 03:48:58 | 27.3  | 27.4  | 26.0  | 27.2  | 70.4  | 03:48 |
| 1357 | 11/03/2026 03:44:16 | 27.3  | 27.4  | 26.0  | 27.3  | 70.2  | 03:44 |